Alexandria Esle, LA

7:59 AM CST on February 25, 2018 (GMT -0600)
Alexandria Esler Regional

Weather History for KESF - November, 2013

Change the Weather History Date:

Thursday, November 21, 2013

  Actual Average Record
Temperature  
Mean Temperature 59 °F -  
Max Temperature 75 °F 65 °F 83 °F (1965)
Min Temperature 43 °F 41 °F 27 °F (2001)
Degree Days  
Heating Degree Days 6    
Growing Degree Days 9 (Base 50)    
Moisture  
Dew Point 56 °F    
Average Humidity 87    
Maximum Humidity 100    
Minimum Humidity 69    
Precipitation  
Precipitation 0.00 in - - ()
Sea Level Pressure  
Sea Level Pressure 30.11 in    
Wind  
Wind Speed 2 mph (SE)    
Max Wind Speed 10 mph    
Max Gust Speed 17 mph    
Visibility 5 miles    
Events      
Averages and records for this station are not official NWS values.
T = Trace of Precipitation, MM = Missing Value Source: NWS Daily Summary

Daily Weather History Graph

Daily Weather History Graph

Search for Another Location

Airport or City:

Trip Planner

Search our weather history database for the weather conditions in past years. The results will help you decide how hot, cold, wet, or windy it might be!

Date:

Astronomy

Nov. 21, 2013 Rise Set
Actual Time 6:42 AM CST 5:07 PM CST
Civil Twilight 6:16 AM CST 5:33 PM CST
Nautical Twilight 5:46 AM CST 6:03 PM CST
Astronomical Twilight 5:17 AM CST 6:32 PM CST
Moon 8:42 PM CST (11/21) 9:50 AM CST (11/21)
Length of Visible Light 11h 17m
Length of Day
10h 25m
Waning Gibbous, 85% of the Moon is Illuminated
Nov 21
Waning Gibbous
Nov 25
Last Quarter
Dec 2
New
Dec 9
First Quarter
Dec 17
Full

Hourly Weather History & Observations

Time (CST) Temp. Dew Point Humidity Pressure Visibility Wind Dir Wind Speed Gust Speed Precip Events Conditions
12:53 AM 43.0 °F 41.0 °F 93% 30.08 in 4.0 mi Calm Calm - N/A   Clear
1:53 AM 44.1 °F 42.1 °F 93% 30.09 in 5.0 mi Calm Calm - N/A   Clear
2:08 AM 44.6 °F 42.8 °F 93% 30.09 in 5.0 mi Calm Calm - N/A   Scattered Clouds
2:19 AM 44.6 °F 42.8 °F 93% 30.09 in 5.0 mi Calm Calm - N/A   Mostly Cloudy
2:26 AM 46.4 °F 44.6 °F 93% 30.09 in 6.0 mi Calm Calm - N/A   Mostly Cloudy
2:53 AM 46.0 °F 44.1 °F 93% 30.09 in 6.0 mi Calm Calm - N/A   Scattered Clouds
3:13 AM 46.4 °F 44.6 °F 93% 30.08 in 5.0 mi Calm Calm - N/A   Mostly Cloudy
3:39 AM 48.2 °F 46.4 °F 93% 30.09 in 6.0 mi Calm Calm - N/A   Overcast
3:53 AM 48.9 °F 46.9 °F 93% 30.09 in 6.0 mi Calm Calm - N/A   Overcast
4:29 AM 50.0 °F 48.2 °F 94% 30.09 in 6.0 mi Calm Calm - N/A   Overcast
4:53 AM 51.1 °F 48.9 °F 92% 30.10 in 2.5 mi Calm Calm - N/A   Overcast
5:03 AM 51.8 °F 50.0 °F 94% 30.10 in 1.0 mi Calm Calm - N/A   Overcast
5:10 AM 51.8 °F 50.0 °F 94% 30.10 in 0.8 mi Calm Calm - N/A   Mist
5:53 AM 52.0 °F 51.1 °F 97% 30.10 in 1.2 mi Calm Calm - N/A   Overcast
6:04 AM 51.8 °F 51.8 °F 100% 30.10 in 3.0 mi Calm Calm - N/A   Overcast
6:53 AM 54.0 °F 51.1 °F 90% 30.11 in 2.0 mi Calm Calm - N/A   Overcast
7:00 AM 53.6 °F 51.8 °F 94% 30.12 in 0.8 mi Calm Calm - N/A   Overcast
7:21 AM 55.4 °F 53.6 °F 94% 30.13 in 2.0 mi Calm Calm - N/A   Overcast
7:26 AM 55.4 °F 53.6 °F 94% 30.13 in 3.0 mi Calm Calm - N/A   Overcast
7:53 AM 57.9 °F 54.0 °F 87% 30.13 in 7.0 mi Calm Calm - N/A   Overcast
8:53 AM 63.0 °F 57.9 °F 84% 30.14 in 6.0 mi ESE 5.8 mph - N/A   Haze
9:53 AM 64.9 °F 60.1 °F 84% 30.15 in 4.0 mi SE 6.9 mph - N/A   Haze
10:53 AM 70.0 °F 62.1 °F 76% 30.14 in 6.0 mi SE 8.1 mph - N/A   Haze
11:24 AM 71.6 °F 62.6 °F 73% 30.13 in 8.0 mi SE 9.2 mph 17.3 mph N/A   Overcast
11:53 AM 72.0 °F 63.0 °F 73% 30.12 in 8.0 mi SSE 8.1 mph - N/A   Overcast
12:46 PM 71.6 °F 62.6 °F 73% 30.10 in 10.0 mi SSE 9.2 mph - N/A   Overcast
12:53 PM 72.0 °F 63.0 °F 73% 30.10 in 9.0 mi SSE 8.1 mph - N/A   Overcast
1:53 PM 75.0 °F 64.0 °F 69% 30.09 in 10.0 mi SSE 10.4 mph - N/A   Mostly Cloudy
2:53 PM 73.9 °F 64.9 °F 73% 30.08 in 8.0 mi SSE 8.1 mph - N/A   Overcast
3:41 PM 71.6 °F 64.4 °F 78% 30.09 in 6.0 mi SSE 4.6 mph - N/A   Haze
3:53 PM 72.0 °F 64.9 °F 78% 30.10 in 6.0 mi SSE 4.6 mph - N/A   Haze
4:36 PM 71.6 °F 66.2 °F 83% 30.09 in 6.0 mi ESE 5.8 mph - 0.00 in   Haze
4:53 PM 71.1 °F 66.0 °F 84% 30.09 in 5.0 mi ESE 4.6 mph - 0.00 in   Haze
5:53 PM 70.0 °F 66.0 °F 87% 30.11 in 6.0 mi East 3.5 mph - N/A   Overcast
6:53 PM 70.0 °F 66.0 °F 87% 30.13 in 6.0 mi ESE 4.6 mph - N/A   Overcast
7:53 PM 70.0 °F 64.9 °F 84% 30.14 in 6.0 mi SE 5.8 mph - N/A   Haze
8:33 PM 69.8 °F 64.4 °F 83% 30.13 in 5.0 mi SE 8.1 mph - N/A   Haze
8:50 PM 69.8 °F 64.4 °F 83% 30.14 in 5.0 mi SE 5.8 mph - N/A   Overcast
8:51 PM 70.0 °F 64.9 °F 84% 30.14 in 5.0 mi SE 4.6 mph - N/A   Haze
9:53 PM 70.0 °F 64.9 °F 84% 30.14 in 5.0 mi SE 5.8 mph - N/A   Haze
10:53 PM 69.1 °F 64.9 °F 87% 30.15 in 5.0 mi SE 5.8 mph - N/A   Overcast
11:53 PM 69.1 °F 64.9 °F 87% 30.15 in 5.0 mi SSE 5.8 mph - N/A   Overcast